• In United Kingdom
  • List of Countries
  • For 7 days
  • Water Temperature
  • Satellite Maps
  • Weather Map
  • Weather Widgets
  • user-avatar
    Login

    Hourly Weather Sidi Bu-l-Abbas

    Today, 24 November, Friday

    Time Temperature Precipitation Wind Pressure Humidity
    00:00 +13°C° 0 mm 1 mps 723 mmHg 28%
    01:00 +13°C° 0 mm 1 mps 723 mmHg 28%
    02:00 +13°C° 0 mm 1 mps 723 mmHg 27%
    03:00 +13°C° 0 mm 2 mps 723 mmHg 26%
    04:00 +12°C° 0 mm 2 mps 723 mmHg 26%
    05:00 +12°C° 0 mm 2 mps 723 mmHg 25%
    06:00 +12°C° 0 mm 2 mps 723 mmHg 25%
    07:00 +14°C° 0 mm 2 mps 723 mmHg 23%
    08:00 +16°C° 0 mm 2 mps 724 mmHg 20%
    09:00 +18°C° 0 mm 2 mps 724 mmHg 18%
    10:00 +20°C° 0 mm 1 mps 724 mmHg 16%
    11:00 +22°C° 0 mm 1 mps 724 mmHg 14%
    12:00 +23°C° 0 mm 1 mps 724 mmHg 12%
    13:00 +23°C° 0 mm 1 mps 724 mmHg 12%
    14:00 +24°C° 0 mm 1 mps 723 mmHg 12%
    15:00 +24°C° 0 mm 2 mps 723 mmHg 12%
    16:00 +22°C° 0 mm 1 mps 723 mmHg 15%
    17:00 +20°C° 0 mm 1 mps 723 mmHg 19%
    18:00 +16°C° 0 mm 1 mps 722 mmHg 22%
    19:00 +16°C° 0 mm 1 mps 723 mmHg 22%
    20:00 +15°C° 0 mm 1 mps 723 mmHg 23%
    21:00 +15°C° 0 mm 1 mps 723 mmHg 23%
    22:00 +15°C° 0 mm 1 mps 723 mmHg 22%
    23:00 +15°C° 0 mm 1 mps 723 mmHg 21%

    Tomorrow, 25 November, Saturday

    Time Temperature Precipitation Wind Pressure Humidity
    00:00 +15°C° 0 mm 2 mps 723 mmHg 20%
    01:00 +14°C° 0 mm 2 mps 723 mmHg 20%
    02:00 +14°C° 0 mm 2 mps 722 mmHg 20%
    03:00 +14°C° 0 mm 2 mps 722 mmHg 20%
    04:00 +14°C° 0 mm 2 mps 722 mmHg 20%
    05:00 +13°C° 0 mm 2 mps 722 mmHg 20%
    06:00 +13°C° 0 mm 2 mps 722 mmHg 20%
    07:00 +15°C° 0 mm 2 mps 723 mmHg 18%
    08:00 +17°C° 0 mm 2 mps 724 mmHg 17%
    09:00 +19°C° 0 mm 2 mps 724 mmHg 16%
    10:00 +20°C° 0 mm 2 mps 724 mmHg 15%
    11:00 +23°C° 0 mm 1 mps 724 mmHg 14%
    12:00 +24°C° 0 mm 1 mps 724 mmHg 13%
    13:00 +24°C° 0 mm 1 mps 724 mmHg 13%
    14:00 +24°C° 0 mm 2 mps 723 mmHg 14%
    15:00 +24°C° 0 mm 2 mps 723 mmHg 14%
    16:00 +21°C° 0 mm 2 mps 723 mmHg 17%
    17:00 +20°C° 0 mm 1 mps 723 mmHg 20%
    18:00 +18°C° 0 mm 1 mps 723 mmHg 23%
    19:00 +18°C° 0 mm 1 mps 723 mmHg 25%
    20:00 +16°C° 0 mm 1 mps 723 mmHg 26%
    21:00 +15°C° 0 mm 1 mps 724 mmHg 27%
    22:00 +15°C° 0 mm 1 mps 724 mmHg 27%
    23:00 +15°C° 0 mm 1 mps 724 mmHg 26%

    Day after tomorrow, 26 November, Sunday

    Time Temperature Precipitation Wind Pressure Humidity
    00:00 +15°C° 0 mm 1 mps 724 mmHg 26%
    01:00 +14°C° 0 mm 1 mps 723 mmHg 26%
    02:00 +14°C° 0 mm 1 mps 723 mmHg 27%
    03:00 +14°C° 0 mm 1 mps 723 mmHg 28%
    04:00 +14°C° 0 mm 1 mps 724 mmHg 28%
    05:00 +13°C° 0 mm 1 mps 724 mmHg 29%
    06:00 +12°C° 0 mm 0 mps 724 mmHg 30%
    07:00 +15°C° 0 mm 1 mps 724 mmHg 28%
    08:00 +18°C° 0 mm 1 mps 725 mmHg 27%
    09:00 +20°C° 0 mm 1 mps 726 mmHg 25%
    10:00 +21°C° 0 mm 1 mps 726 mmHg 23%
    11:00 +21°C° 0 mm 2 mps 726 mmHg 21%
    12:00 +23°C° 0 mm 2 mps 726 mmHg 19%
    13:00 +21°C° 0 mm 2 mps 726 mmHg 21%
    14:00 +21°C° 0 mm 3 mps 725 mmHg 23%
    15:00 +21°C° 0 mm 3 mps 725 mmHg 25%
    16:00 +20°C° 0 mm 3 mps 725 mmHg 32%
    17:00 +18°C° 0 mm 3 mps 725 mmHg 39%
    18:00 +16°C° 0 mm 2 mps 725 mmHg 46%
    19:00 +16°C° 0 mm 2 mps 725 mmHg 50%
    20:00 +15°C° 0 mm 1 mps 725 mmHg 54%
    21:00 +15°C° 0 mm 1 mps 726 mmHg 58%
    22:00 +14°C° 0 mm 1 mps 726 mmHg 58%
    23:00 +14°C° 0 mm 1 mps 725 mmHg 59%

    27 November, Monday

    Time Temperature Precipitation Wind Pressure Humidity
    00:00 +14°C° 0 mm 1 mps 725 mmHg 59%
    01:00 +13°C° 0 mm 1 mps 725 mmHg 59%
    02:00 +13°C° 0 mm 1 mps 725 mmHg 59%
    03:00 +13°C° 0 mm 1 mps 724 mmHg 59%
    04:00 +12°C° 0 mm 1 mps 724 mmHg 59%
    05:00 +12°C° 0 mm 1 mps 724 mmHg 59%
    06:00 +12°C° 0 mm 1 mps 724 mmHg 59%
    07:00 +14°C° 0 mm 1 mps 724 mmHg 54%
    08:00 +15°C° 0 mm 1 mps 725 mmHg 48%
    09:00 +16°C° 0 mm 0 mps 725 mmHg 43%
    10:00 +19°C° 0 mm 1 mps 725 mmHg 40%
    11:00 +20°C° 0 mm 1 mps 725 mmHg 38%
    12:00 +21°C° 0 mm 1 mps 724 mmHg 35%
    13:00 +20°C° 0 mm 2 mps 724 mmHg 38%
    14:00 +19°C° 0 mm 2 mps 724 mmHg 42%
    15:00 +19°C° 0 mm 3 mps 724 mmHg 45%
    16:00 +18°C° 0 mm 2 mps 724 mmHg 52%
    17:00 +17°C° 0 mm 2 mps 724 mmHg 60%
    18:00 +16°C° 0 mm 1 mps 724 mmHg 67%
    19:00 +15°C° 0 mm 1 mps 724 mmHg 70%
    20:00 +15°C° 0 mm 1 mps 724 mmHg 72%
    21:00 +15°C° 0 mm 1 mps 724 mmHg 75%
    22:00 +14°C° 0 mm 1 mps 724 mmHg 77%
    23:00 +13°C° 0 mm 0 mps 724 mmHg 78%

    28 November, Tuesday

    Time Temperature Precipitation Wind Pressure Humidity
    00:00 +12°C° 0 mm 0 mps 723 mmHg 80%
    01:00 +12°C° 0 mm 0 mps 723 mmHg 80%
    02:00 +13°C° 0 mm 1 mps 723 mmHg 80%
    03:00 +13°C° 0 mm 1 mps 722 mmHg 80%
    04:00 +13°C° 0 mm 1 mps 722 mmHg 79%
    05:00 +13°C° 0 mm 1 mps 722 mmHg 78%
    06:00 +12°C° 0 mm 1 mps 722 mmHg 78%
    07:00 +14°C° 0 mm 1 mps 722 mmHg 69%
    08:00 +16°C° 0 mm 1 mps 723 mmHg 61%
    09:00 +18°C° 0 mm 1 mps 723 mmHg 52%
    10:00 +19°C° 0 mm 1 mps 722 mmHg 47%
    11:00 +21°C° 0 mm 1 mps 722 mmHg 42%
    12:00 +22°C° 0 mm 1 mps 722 mmHg 37%
    13:00 +21°C° 0 mm 2 mps 721 mmHg 36%
    14:00 +21°C° 0 mm 2 mps 720 mmHg 36%
    15:00 +23°C° 0 mm 2 mps 720 mmHg 36%
    16:00 +20°C° 0 mm 2 mps 720 mmHg 41%
    17:00 +19°C° 0 mm 2 mps 719 mmHg 46%
    18:00 +18°C° 0 mm 1 mps 719 mmHg 51%
    19:00 +18°C° 0 mm 1 mps 719 mmHg 51%
    20:00 +18°C° 0 mm 1 mps 719 mmHg 50%
    21:00 +16°C° 0 mm 1 mps 719 mmHg 50%
    22:00 +16°C° 0 mm 1 mps 718 mmHg 49%
    23:00 +16°C° 0 mm 1 mps 718 mmHg 47%

    29 November, Wednesday

    Time Temperature Precipitation Wind Pressure Humidity
    00:00 +16°C° 0 mm 1 mps 718 mmHg 46%
    01:00 +16°C° 0 mm 2 mps 717 mmHg 45%
    02:00 +16°C° 0 mm 2 mps 717 mmHg 45%
    03:00 +15°C° 0 mm 2 mps 717 mmHg 45%
    04:00 +15°C° 0 mm 2 mps 717 mmHg 43%
    05:00 +15°C° 0 mm 2 mps 716 mmHg 41%
    06:00 +15°C° 0 mm 2 mps 716 mmHg 40%
    07:00 +16°C° 0 mm 3 mps 717 mmHg 35%
    08:00 +18°C° 0 mm 3 mps 717 mmHg 31%
    09:00 +19°C° 0 mm 3 mps 717 mmHg 27%
    10:00 +21°C° 0 mm 4 mps 717 mmHg 26%
    11:00 +23°C° 0 mm 6 mps 717 mmHg 25%
    12:00 +24°C° 0 mm 7 mps 716 mmHg 24%
    13:00 +24°C° 0 mm 7 mps 716 mmHg 25%
    14:00 +24°C° 0 mm 7 mps 715 mmHg 26%
    15:00 +24°C° 0 mm 7 mps 715 mmHg 27%
    16:00 +22°C° 0 mm 5 mps 715 mmHg 34%
    17:00 +20°C° 0 mm 4 mps 715 mmHg 40%
    18:00 +18°C° 0 mm 2 mps 715 mmHg 46%
    19:00 +18°C° 0 mm 2 mps 715 mmHg 47%
    20:00 +18°C° 0 mm 2 mps 715 mmHg 48%
    21:00 +17°C° 0 mm 2 mps 715 mmHg 48%
    22:00 +17°C° 0 mm 2 mps 715 mmHg 47%
    23:00 +17°C° 0 mm 2 mps 715 mmHg 46%
    Show more